Location: Avully
(45.9633°N, 6.0228°E)
Time: 04:44:58
(UTC+00:00)

Cosmos 2360 Rocket - Pass Details

Date: 13 August 2024
Orbit: 834 x 843 km, 71.0° (Epoch: 16 September)

Event Time Altitude Azimuth Distance (km) Brightness Sun altitude
Exits shadow 02:05:29 - 285° (WNW) 2,549 4.5 -21.3°
Reaches altitude 10° 02:05:54 10° 289° (WNW) 2,465 4.4 -21.2°
Maximum altitude 02:08:55 14° 321° (NW) 2,163 4.5 -20.9°
Drops below altitude 10° 02:11:56 10° 354° (N) 2,468 5.2 -20.6°
Sets 02:15:39 0° 18° (NNE) 3,405 6.6 -20.1°
